Terug naar catalogus

STARLINK-3826

ActiefCommunicatieVLEO
NORAD 52347·PAYLOAD·🇺🇸 United States

Gelanceerd Apr 29, 2022 vanaf Cape Canaveral Space Force Station

Loading…

Volgende Passages (komende 24 uur)

TLE

VersSource: CelesTrak SupGP

Epoch: Sep 15, 2026, 01:17 UTC

1 52347C 22045S   26258.05395833 -.00045220  00000+0 -13722-2 0  2582
2 52347  53.1579  55.3418 0001261  76.2262 264.3532 15.33569951    17

Volg STARLINK-3826 in realtime met AllMySat

Download on the App Store